Flag for Malaysia Weather past 2 weeks in Kuching, Malaysia

Now
77 °F

Light rain. Partly cloudy.


Feels Like: 78 °F
Forecast: 76 / 86 °F
Wind: 5 mph from West

Location: Kuching Airport

Current Time: Mar 1, 2015 at 7:14:16 AM

Latest Report: Mar 1, 2015 at 6:30 AM


Visibility: 5 mi

Pressure: 29.83 "Hg

Humidity: 94%

Dew point: 75 °F

Location of KuchingLocation

Historic Weather in Kuching — Graph

°F

Kuching temperature yesterday

Maximum temperature yesterday: 88 °F (at 2:30 PM)
Minimum temperature yesterday: 77 °F (at 2:30 AM)
Average temperature yesterday: 81 °F

Past Weeks' High & Low Weather Summary

 TemperatureHumidityPressure
High90 °F (Feb 24, 4:00 PM)100% (Feb 14, 7:00 AM)29.95 "Hg (Feb 14, 7:00 AM)
Low72 °F (Feb 14, 6:30 AM)59% (Feb 15, 2:00 PM)29.74 "Hg (Feb 27, 4:00 PM)
Average80 °F84%29.86 "Hg
* Reported Feb 14 6:00 AM — Mar 1 6:00 AM, Kuching, Weather by CustomWeather, © 2015

Note: Actual official high and low records may vary slightly from our data, if they occured in-between our weather recording intervals... More about our weather records

Advertising

Kuching weather history for previous 24 hours

 ConditionsComfort  
Time TempWeatherWind HumidityBarometerVisibility
6:00 AM
Sun, Mar 1
77 °FHeavy rain. Partly cloudy.3 mph94%29.83 "Hg2 mi
5:30 AM77 °FPartly cloudy.3 mph94%29.80 "HgN/A
5:00 AM77 °FPartly cloudy.2 mph94%29.80 "HgN/A
4:30 AM77 °FLight rain. Partly cloudy.1 mph94%29.80 "HgN/A
4:00 AM77 °FLight rain. Partly cloudy.1 mph94%29.80 "HgN/A
3:30 AM77 °FPartly cloudy.3 mph94%29.80 "HgN/A
3:00 AM77 °FPartly cloudy.3 mph94%29.83 "HgN/A
2:30 AM77 °FPartly cloudy.5 mph94%29.83 "HgN/A
2:00 AM77 °FPartly cloudy.1 mph94%29.83 "HgN/A
1:30 AM77 °FPartly cloudy.No wind94%29.83 "HgN/A
1:00 AM79 °FPartly cloudy.3 mph89%29.83 "HgN/A
12:30 AM79 °FPartly cloudy.3 mph89%29.86 "HgN/A
12:00 AM79 °FPartly cloudy.3 mph89%29.86 "HgN/A
11:30 PM
Sat, Feb 28
81 °FPartly cloudy.3 mph84%29.86 "HgN/A
11:00 PM81 °FPartly cloudy.1 mph84%29.86 "HgN/A
10:30 PM81 °FPassing clouds.3 mph84%29.86 "HgN/A
10:00 PM81 °FPassing clouds.3 mph84%29.86 "HgN/A
9:30 PM81 °FPassing clouds.5 mph84%29.83 "HgN/A
9:00 PM81 °FPassing clouds.3 mph84%29.83 "HgN/A
8:30 PM81 °FPassing clouds.5 mph84%29.83 "HgN/A
8:00 PM81 °FPartly cloudy.5 mph84%29.80 "HgN/A
7:30 PM82 °FPartly cloudy.5 mph79%29.80 "HgN/A
7:00 PM82 °FPartly cloudy.6 mph79%29.80 "HgN/A
6:30 PM82 °FBroken clouds.8 mph79%29.77 "HgN/A
6:00 PM84 °FBroken clouds.8 mph74%29.77 "HgN/A
5:30 PM84 °FBroken clouds.8 mph74%29.77 "HgN/A
5:00 PM84 °FBroken clouds.9 mph74%29.77 "HgN/A
4:30 PM86 °FBroken clouds.9 mph70%29.77 "HgN/A
4:00 PM88 °FBroken clouds.8 mph62%29.74 "HgN/A
3:30 PM88 °FBroken clouds.7 mph70%29.77 "HgN/A
3:00 PM88 °FBroken clouds.7 mph66%29.80 "HgN/A
2:30 PM88 °FSprinkles. Broken clouds.7 mph66%29.80 "HgN/A
2:00 PM84 °FSprinkles. Broken clouds.9 mph66%29.80 "Hg5 mi
1:30 PM82 °FSprinkles. Broken clouds.6 mph84%29.83 "Hg5 mi
1:00 PM86 °FBroken clouds.6 mph70%29.83 "Hg5 mi
12:30 PM86 °FBroken clouds.8 mph75%29.86 "Hg5 mi
11:30 AM84 °FBroken clouds.3 mph79%29.89 "Hg5 mi
11:00 AM81 °FBroken clouds.5 mph84%29.89 "Hg4 mi
10:30 AM81 °FSprinkles. Broken clouds.10 mph89%29.89 "Hg4 mi
10:00 AM82 °FBroken clouds.1 mph84%29.92 "Hg4 mi
9:30 AM81 °FThunderstorms. Broken clouds.1 mph89%29.89 "Hg4 mi
9:00 AM81 °FBroken clouds.1 mph84%29.89 "Hg4 mi
8:30 AM79 °FBroken clouds.2 mph89%29.89 "Hg4 mi
8:00 AM79 °FBroken clouds.No wind89%29.86 "Hg4 mi
7:30 AM77 °FBroken clouds.3 mph94%29.86 "Hg5 mi
7:00 AM77 °FBroken clouds.2 mph89%29.86 "Hg5 mi
Weather by CustomWeather, © 2015

See weather overviewHow to use our weather pages